Погода в Новотомникове

Россия / Тамбовская область     53°46′29″N   41°47′03″E
темп.,
°C
ветер,
м/с
пор.,
м/с
влажн.,
%
обл.,
%
осадки,
мм/ч
давл.,
гПа
погр.,
м
22 октября, пт
пт2200:00+12юз81767100 0.0 1003731
03:00+11юз81669100 0.0 1001680
06:00+10юз81771100 0.0 1000715
09:00+11юз81570100 0.0 1001750
12:00+13юз81466100 0.0 1002960
15:00+14зюз9156373 0.0 10021529
18:00+12зюз814625 0.0 1004886
21:00+10зюз713685 0.0 1006701
23 октября, сб
сб2300:00+9зюз613710 0.0 1008626
03:00+7юз613760 0.0 1008473
06:00+6юз613765 0.0 1009468
09:00+8юз613615 0.0 1009889
12:00+11юз8134382 0.0 10091518
15:00+12зюз7134440 0.0 10081982
18:00+9зюз5115491 0.0 1009338
21:00+7зюз487269 0.1 1010286
24 октября, вс
вс2400:00+6з597457 0.0 1011828
03:00+6з696874 0.0 1012924
06:00+4зюз510805 0.0 1012384
09:00+4зюз5107584 0.0 1012493
12:00+7зюз71165100 0.0 10121284
15:00+6з6106783 0.6 10121263
18:00+4з488099 0.1 1014718
21:00+3зсз4794100 0.3 1014667
25 октября, пн
пн2500:00+3сз5891100 0.1 1016671
03:00+2ссз71087100 0.3 1018657
06:00+1ссз71286100 0.1 1021710
09:00+2с71295100 0.2 1022684
12:00+2с786697 0.0 1025966
15:00+4с68515 0.0 10271174
18:00+1ссз4963100 0.0 1030272
21:000ссз3768100 0.0 1031204
26 октября, вт
вт2600:00−1сз22735 0.0 103230
03:00−1з23725 0.0 103254
06:00−2юз377262 0.0 1032163
09:00+1юз510609 0.0 1031392
12:00+5зюз794225 0.0 1029745
15:00+5зюз6104242 0.0 1027781
18:00+3юз6135078 0.0 1027455
21:00+2юз61454100 0.0 1025414